Cooperstown, ND

12:10 PM CST on November 20, 2017 (GMT -0600)
Cooperstown

Weather History for KS32 - May, 2014

Change the Weather History Date:

Sunday, May 25, 2014

  Actual Average (KJMS) Record (KJMS)
Temperature  
Mean Temperature 72 °F -  
Max Temperature 82 °F 71 °F 95 °F (1941)
Min Temperature 62 °F 46 °F 28 °F (1910)
Cooling Degree Days 7    
Growing Degree Days 22 (Base 50)    
Moisture  
Dew Point 58 °F    
Average Humidity 73    
Maximum Humidity 100    
Minimum Humidity 39    
Precipitation  
Precipitation 0.02 in - - ()
Sea Level Pressure  
Sea Level Pressure 29.85 in    
Wind  
Wind Speed 14 mph (SSW)    
Max Wind Speed 28 mph    
Max Gust Speed 39 mph    
Visibility 10 miles    
Events Rain , Thunderstorm    
Averages and records for this station are not official NWS values.
T = Trace of Precipitation, MM = Missing Value Source: NWS Daily Summary

Daily Weather History Graph

Daily Weather History Graph

Search for Another Location

Airport or City:

Trip Planner

Search our weather history database for the weather conditions in past years. The results will help you decide how hot, cold, wet, or windy it might be!

Date:

Astronomy

May. 25, 2014 Rise Set
Actual Time 5:44 AM CDT 9:14 PM CDT
Civil Twilight 5:06 AM CDT 9:52 PM CDT
Nautical Twilight 4:16 AM CDT 10:43 PM CDT
Astronomical Twilight 3:09 AM CDT 11:51 PM CDT
Moon 4:04 AM CDT (5/25) 6:04 PM CDT (5/25)
Length of Visible Light 16h 45m
Length of Day
15h 29m
Waning Crescent, 10% of the Moon is Illuminated
May 25
Waning Crescent
May 28
New
Jun 5
First Quarter
Jun 12
Full
Jun 19
Last Quarter

Hourly Weather History & Observations

Time (CDT) Temp. Heat Index Dew Point Humidity Pressure Visibility Wind Dir Wind Speed Gust Speed Precip Events Conditions
12:15 AM 64.4 °F - 53.6 °F 68% 29.90 in 10.0 mi South 11.5 mph - N/A   Clear
12:35 AM 64.4 °F - 53.6 °F 68% 29.91 in 10.0 mi South 11.5 mph - N/A   Clear
1:15 AM 64.4 °F - 53.6 °F 68% 29.91 in 10.0 mi South 11.5 mph - N/A   Clear
1:35 AM 64.4 °F - 53.6 °F 68% 29.91 in 10.0 mi South 11.5 mph - N/A   Clear
1:55 AM 64.4 °F - 53.6 °F 68% 29.91 in 10.0 mi South 11.5 mph - N/A   Clear
2:15 AM 64.4 °F - 51.8 °F 64% 29.90 in 10.0 mi South 12.7 mph - N/A   Clear
2:35 AM 64.4 °F - 50.0 °F 59% 29.89 in 10.0 mi South 15.0 mph - N/A   Clear
2:55 AM 64.4 °F - 50.0 °F 59% 29.88 in 10.0 mi South 15.0 mph - N/A   Clear
3:15 AM 64.4 °F - 50.0 °F 59% 29.88 in 10.0 mi South 15.0 mph - N/A   Clear
3:35 AM 64.4 °F - 48.2 °F 56% 29.87 in 10.0 mi South 13.8 mph - N/A   Scattered Clouds
3:55 AM 64.4 °F - 48.2 °F 56% 29.87 in 10.0 mi South 13.8 mph - N/A   Mostly Cloudy
4:15 AM 64.4 °F - 48.2 °F 56% 29.87 in 10.0 mi South 15.0 mph - N/A   Mostly Cloudy
4:35 AM 64.4 °F - 46.4 °F 52% 29.86 in 10.0 mi South 16.1 mph - N/A   Mostly Cloudy
4:55 AM 64.4 °F - 46.4 °F 52% 29.86 in 10.0 mi South 18.4 mph - N/A   Overcast
5:15 AM 64.4 °F - 44.6 °F 49% 29.86 in 10.0 mi South 18.4 mph - N/A   Mostly Cloudy
5:35 AM 64.4 °F - 46.4 °F 52% 29.86 in 10.0 mi South 18.4 mph - N/A   Mostly Cloudy
5:55 AM 64.4 °F - 46.4 °F 52% 29.86 in 10.0 mi South 17.3 mph - N/A   Mostly Cloudy
6:15 AM 64.4 °F - 46.4 °F 52% 29.85 in 10.0 mi South 19.6 mph - N/A   Mostly Cloudy
6:35 AM 64.4 °F - 46.4 °F 52% 29.86 in 10.0 mi South 17.3 mph - N/A   Mostly Cloudy
6:55 AM 64.4 °F - 46.4 °F 52% 29.85 in 10.0 mi South 15.0 mph - N/A   Mostly Cloudy
7:15 AM 64.4 °F - 46.4 °F 52% 29.86 in 10.0 mi South 17.3 mph - N/A   Mostly Cloudy
7:35 AM 64.4 °F - 46.4 °F 52% 29.86 in 10.0 mi South 18.4 mph 25.3 mph N/A   Scattered Clouds
7:55 AM 66.2 °F - 48.2 °F 52% 29.85 in 10.0 mi SSW 21.9 mph - N/A   Mostly Cloudy
8:15 AM 68.0 °F - 48.2 °F 49% 29.85 in 10.0 mi SSW 18.4 mph - N/A   Mostly Cloudy
8:35 AM 68.0 °F - 50.0 °F 52% 29.86 in 10.0 mi SSW 17.3 mph - N/A   Mostly Cloudy
8:55 AM 68.0 °F - 50.0 °F 52% 29.85 in 10.0 mi South 17.3 mph - N/A   Partly Cloudy
9:15 AM 69.8 °F - 53.6 °F 56% 29.85 in 10.0 mi South 19.6 mph 25.3 mph N/A   Clear
10:15 AM 73.4 °F - 55.4 °F 53% 29.84 in 10.0 mi SSW 19.6 mph 24.2 mph N/A   Partly Cloudy
10:35 AM 75.2 °F - 55.4 °F 50% 29.83 in 10.0 mi SSW 21.9 mph 27.6 mph N/A   Clear
10:55 AM 77.0 °F - 57.2 °F 50% 29.83 in 10.0 mi SSW 21.9 mph 28.8 mph N/A   Clear
11:15 AM 77.0 °F - 57.2 °F 50% 29.83 in 10.0 mi SSW 19.6 mph 29.9 mph N/A   Partly Cloudy
11:35 AM 77.0 °F - 57.2 °F 50% 29.82 in 10.0 mi SSW 23.0 mph 28.8 mph N/A Thunderstorm Clear
11:55 AM 80.6 °F 80.8 °F 57.2 °F 45% 29.82 in 10.0 mi South 23.0 mph 29.9 mph N/A   Clear
12:15 PM 80.6 °F 80.8 °F 57.2 °F 45% 29.82 in 10.0 mi SSW 24.2 mph 29.9 mph N/A   Clear
12:35 PM 80.6 °F 80.8 °F 57.2 °F 45% 29.82 in 10.0 mi SSW 24.2 mph 31.1 mph N/A   Scattered Clouds
12:55 PM 82.4 °F 82.0 °F 57.2 °F 42% 29.81 in 10.0 mi SSW 23.0 mph 36.8 mph N/A   Scattered Clouds
1:15 PM 82.4 °F 81.7 °F 55.4 °F 39% 29.79 in 10.0 mi SSW 26.5 mph 33.4 mph N/A Thunderstorm Partly Cloudy
1:35 PM 82.4 °F 81.7 °F 55.4 °F 39% 29.79 in 10.0 mi SSW 27.6 mph 31.1 mph N/A   Partly Cloudy
1:55 PM 82.4 °F 81.7 °F 55.4 °F 39% 29.78 in 10.0 mi SSW 21.9 mph 34.5 mph N/A Thunderstorm Mostly Cloudy
2:15 PM 75.2 °F - 62.6 °F 65% 29.80 in 10.0 mi West 15.0 mph 29.9 mph N/A   Overcast
2:35 PM 69.8 °F - 64.4 °F 83% 29.81 in 5.0 mi WNW 25.3 mph 39.1 mph N/A Rain , Thunderstorm Light Rain
2:55 PM 68.0 °F - 66.2 °F 94% 29.81 in 3.0 mi WSW 15.0 mph - 0.02 in Rain , Thunderstorm Light Rain
3:15 PM 68.0 °F - 66.2 °F 94% 29.82 in 9.0 mi SW 12.7 mph - N/A Thunderstorm Scattered Clouds
3:35 PM 66.2 °F - 66.2 °F 100% 29.82 in 10.0 mi SW 10.4 mph - N/A Thunderstorm Thunderstorm
3:55 PM 66.2 °F - 66.2 °F 100% 29.81 in 10.0 mi SW 8.1 mph - N/A   Clear
4:15 PM 66.2 °F - 66.2 °F 100% 29.80 in 10.0 mi SW 8.1 mph - N/A   Clear
4:35 PM 66.2 °F - 64.4 °F 94% 29.79 in 10.0 mi SSW 11.5 mph - N/A   Clear
4:55 PM 66.2 °F - 66.2 °F 100% 29.79 in 10.0 mi South 6.9 mph - N/A   Clear
5:15 PM 66.2 °F - 66.2 °F 100% 29.80 in 10.0 mi SSW 3.5 mph - N/A   Partly Cloudy
5:35 PM 66.2 °F - 66.2 °F 100% 29.81 in 10.0 mi Calm Calm - N/A   Clear
5:55 PM 68.0 °F - 68.0 °F 100% 29.81 in 10.0 mi SSW 5.8 mph - N/A   Clear
6:15 PM 68.0 °F - 68.0 °F 100% 29.82 in 10.0 mi WNW 3.5 mph - N/A   Scattered Clouds
6:35 PM 66.2 °F - 66.2 °F 100% 29.82 in 10.0 mi Calm Calm - N/A   Partly Cloudy
6:55 PM 66.2 °F - 66.2 °F 100% 29.82 in 10.0 mi Calm Calm - N/A Thunderstorm Partly Cloudy
7:15 PM 68.0 °F - 68.0 °F 100% 29.82 in 10.0 mi SSW 6.9 mph - N/A   Partly Cloudy
7:35 PM 68.0 °F - 68.0 °F 100% 29.83 in 10.0 mi Calm Calm - N/A   Clear
7:55 PM 68.0 °F - 68.0 °F 100% 29.83 in 10.0 mi Calm Calm - N/A   Clear
8:15 PM 68.0 °F - 68.0 °F 100% 29.84 in 10.0 mi Calm Calm - N/A   Clear
8:35 PM 66.2 °F - 66.2 °F 100% 29.84 in 10.0 mi South 4.6 mph - N/A   Clear
8:55 PM 66.2 °F - 66.2 °F 100% 29.84 in 10.0 mi Calm Calm - N/A   Clear
9:15 PM 64.4 °F - 64.4 °F 100% 29.85 in 9.0 mi Calm Calm - N/A   Clear
9:35 PM 62.6 °F - 62.6 °F 100% 29.86 in 8.0 mi Calm Calm - N/A   Clear
9:55 PM 62.6 °F - 62.6 °F 100% 29.87 in 3.0 mi Calm Calm - N/A   Clear
10:15 PM 62.6 °F - 62.6 °F 100% 29.88 in 5.0 mi North 9.2 mph - N/A   Clear
10:35 PM 62.6 °F - 62.6 °F 100% 29.88 in 9.0 mi NNE 10.4 mph - N/A   Scattered Clouds
10:55 PM 64.4 °F - 64.4 °F 100% 29.89 in 10.0 mi NE 11.5 mph - N/A   Mostly Cloudy
11:15 PM 64.4 °F - 64.4 °F 100% 29.89 in 10.0 mi NE 11.5 mph - N/A   Partly Cloudy
11:35 PM 64.4 °F - 64.4 °F 100% 29.89 in 10.0 mi NE 10.4 mph - N/A   Scattered Clouds
11:55 PM 62.6 °F - 62.6 °F 100% 29.90 in 10.0 mi NE 11.5 mph - N/A   Partly Cloudy